Location: B?dimalle
(17.1788°N, 80.5377°E)
Time: 05:29:58
(UTC+00:00)

Explorer 11/Cluster Stage 4 - Visible Passes

Search period start: 18 February 2026 00:00
Search period end: 28 February 2026 00:00
Orbit: 463 x 1177 km, 28.8° (Epoch: 17 February)

Date Brightness Start Highest point End Pass type
(mag) Time Alt. Az. Time Alt. Az. Time Alt. Az.
18 Feb 6.2 13:26:00 10° WNW 13:29:52 65° SSW 13:34:15 11° SE visible
18 Feb 9.0 15:14:49 10° WSW 15:15:32 12° SW 15:15:32 12° SW visible
19 Feb 6.2 13:02:03 10° WNW 13:05:46 61° SSW 13:10:05 10° SE visible
19 Feb 8.7 14:51:13 10° SW 14:53:16 13° SSW 14:53:25 13° SSW visible
20 Feb 8.7 14:27:47 10° SW 14:29:06 11° SSW 14:30:29 10° S visible
23 Feb 9.7 00:37:56 10° S 00:41:37 14° SSE 00:45:06 10° ESE visible
24 Feb 9.7 00:13:04 10° S 00:17:08 15° SSE 00:21:02 10° ESE visible
24 Feb 9.6 23:48:16 10° S 23:52:38 16° SSE 23:56:52 10° ESE visible
25 Feb 9.6 23:23:32 10° S 23:28:06 17° SSE 23:32:35 10° ESE visible
26 Feb 9.5 22:58:51 10° S 23:03:33 17° SSE 23:08:13 10° ESE visible
27 Feb 9.4 22:35:12 12° S 22:39:00 17° SSE 22:43:47 10° ESE visible
